Simultaneous Nadir Overpasses (SNOs) Predictions

Prediction of SNOs between GOES-17 and AQUA Satellite Orbit:

Table of predicted SNOs for the next 14.0 days since TLE Epoch: 9/5/2020
Index Date Time (GOES-17) GOES-17 Lat,Lon AQUA Lat,Lon Distance(km) Time Diff (sec)
1 09/05/2020 22:42:41 -0.06,-137.19 0.10,-136.43 86.94 80
2 09/06/2020 11:03:56 0.06,-137.19 0.99,-141.58 499.14 80
3 09/07/2020 22:30:30 -0.06,-137.22 0.76,-133.48 426.68 80
4 09/08/2020 10:51:45 0.06,-137.22 0.33,-138.63 159.70 80
5 09/10/2020 10:36:53 0.05,-137.25 -0.28,-135.67 178.90 80
6 09/10/2020 22:58:18 -0.05,-137.26 -0.81,-140.87 410.37 80
7 09/12/2020 22:46:06 -0.04,-137.27 -0.19,-137.91 72.93 80
8 09/14/2020 22:36:35 -0.03,-137.28 0.48,-134.96 263.87 80
9 09/15/2020 10:57:50 0.03,-137.27 0.62,-140.11 323.03 80
10 09/17/2020 10:42:58 0.02,-137.27 0.00,-137.15 13.22 80
